Location: Vinland
(47.7731°N, 122.6974°W)
Time: 22:44:30
(UTC+00:00)

Tiros 1 - Pass Details

Date: 30 March 2023
Orbit: 627 x 660 km, 48.4° (Epoch: 28 May)

Event Time Altitude Azimuth Distance (km) Brightness Sun altitude
Exits shadow 12:08:42 30° 213° (SSW) 1,184 8.0 -17.6°
Maximum altitude 12:10:44 51° 154° (SSE) 835 7.7 -17.3°
Drops below altitude 10° 12:15:23 10° 79° (E) 2,079 11.0 -16.6°
Sets 12:17:47 0° 74° (ENE) 2,992 12.3 -16.3°
